Flag for U.S.A. Weather past 2 weeks in Honolulu, Hawaii, U.S.A.

Now
78 °F

Passing clouds.


Feels Like: 80 °F
Forecast: 73 / 83 °F
Wind: 9 mph from East

Location: Honolulu International Airport

Current Time: Oct 24, 2014 at 11:42:44 PM

Latest Report: Oct 24, 2014 at 10:53 PM


Visibility: 10 mi

Pressure: 30.04 "Hg

Humidity: 79%

Dew point: 71 °F

Location of HonoluluLocation

Historic Weather in Honolulu — Graph

°F

Honolulu temperature yesterday

Maximum temperature yesterday: 87 °F (at 12:53 PM)
Minimum temperature yesterday: 75 °F (at 3:53 AM)
Average temperature yesterday: 80 °F

Past Weeks' High & Low Weather Summary

 TemperatureHumidityPressure
High89 °F (Oct 10, 1:53 PM)97% (Oct 22, 9:53 PM)30.05 "Hg (Oct 22, 9:53 PM)
Low74 °F (Oct 19, 4:53 AM)42% (Oct 11, 12:53 PM)29.86 "Hg (Oct 15, 2:53 PM)
Average81 °F70%29.97 "Hg
* Reported Oct 9 10:53 PM — Oct 24 10:53 PM, Honolulu, Weather by CustomWeather, © 2014

Note: Actual official high and low records may vary slightly from our data, if they occured in-between our weather recording intervals... More about our weather records

Advertising

Honolulu weather history for previous 24 hours

 ConditionsComfort  
Time TempWeatherWind HumidityBarometerVisibility
10:53 PM
Oct 24
78 °FPassing clouds.9 mph79%30.04 "Hg10 mi
9:53 PM78 °FPassing clouds.9 mph79%30.04 "Hg10 mi
8:53 PM79 °FPassing clouds.10 mph77%30.04 "Hg10 mi
7:53 PM78 °FPassing clouds.6 mph82%30.03 "Hg10 mi
6:53 PM80 °FPassing clouds.8 mph71%30.01 "Hg10 mi
5:53 PM81 °FScattered clouds.13 mph69%30.00 "Hg10 mi
4:53 PM83 °FScattered clouds.15 mph61%29.98 "Hg10 mi
3:53 PM84 °FScattered clouds.14 mph61%29.98 "Hg10 mi
2:53 PM84 °FScattered clouds.15 mph61%29.97 "Hg10 mi
1:53 PM87 °FScattered clouds.14 mph55%29.97 "Hg10 mi
12:53 PM87 °FScattered clouds.14 mph55%29.99 "Hg10 mi
11:53 AM86 °FScattered clouds.12 mph55%30.01 "Hg10 mi
10:53 AM86 °FScattered clouds.14 mph57%30.03 "Hg10 mi
9:53 AM83 °FScattered clouds.7 mph68%30.04 "Hg10 mi
8:53 AM83 °FScattered clouds.10 mph65%30.03 "Hg10 mi
7:53 AM80 °FScattered clouds.8 mph74%30.03 "Hg10 mi
6:53 AM77 °FScattered clouds.6 mph79%30.01 "Hg10 mi
5:53 AM75 °FPassing clouds.3 mph85%29.99 "Hg10 mi
4:53 AM75 °FPassing clouds.No wind85%29.98 "Hg10 mi
3:53 AM75 °FClear.3 mph85%29.98 "Hg10 mi
2:53 AM76 °FPartly cloudy.6 mph85%29.99 "Hg10 mi
1:53 AM76 °FPartly cloudy.9 mph82%30.00 "Hg10 mi
12:53 AM77 °FPartly cloudy.6 mph79%30.02 "Hg10 mi
11:53 PM
Oct 23
79 °FPartly cloudy.8 mph72%30.03 "Hg10 mi
Weather by CustomWeather, © 2014

See weather overviewHow to use our weather pages